Location: New Mesquite
(33.1168°N, 96.4336°W)
Time: 03:42:45
(UTC+00:00)

Meteor 1-27 Rocket - Pass Details

Date: 11 July 2022
Orbit: 829 x 911 km, 81.3° (Epoch: 13 August)

Event Time Altitude Azimuth Distance (km) Brightness Sun altitude
Rises 06:45:54 0° 13° (NNE) 3,393 7.9 -34.7°
Reaches altitude 10° 06:49:30 10° 37° (NE) 2,444 6.7 -34.6°
Maximum altitude 06:52:31 15° 71° (ENE) 2,115 6.0 -34.6°
Enters shadow 06:52:57 15° 76° (ENE) 2,121 5.9 -34.5°
